Theta_e
351 350 351 347 346 345 344 342 341 343 341 340 341 340 342 343 342 341 340 337 332 326 322 323 324 328 329 328 330 330 328 324 321 318 317 319 322 329
350 348 346 346 345 345 343 339 339 339 341 339 340 342 342 340 340 339 336 330 324 320 320 320 321 323 324 324 324 322 319 316 315 315 314 315 317 321
349 348 348 347 344 341 341 340 340 340 340 339 338 339 339 337 335 332 326 322 319 323 319 314 314 317 321 321 320 318 316 315 314 315 315 314 314 316
347 347 343 342 341 341 340 339 339 339 339 338 335 337 337 335 328 331 328 324 324 323 322 317 314 317 319 318 316 316 315 314 315 315 315 316 316 315
343 342 342 343 342 342 342 341 340 339 339 335 330 331 332 330 330 328 328 325 327 328 320 317 314 314 315 314 314 314 315 315 316 317 317 317 318 318
340 337 336 338 338 340 339 338 337 336 334 333 332 331 330 328 326 327 330 329 331 328 323 318 317 315 314 315 315 315 316 316 317 318 318 319 319 319
336 337 337 337 338 337 338 339 336 335 334 334 333 333 332 333 334 333 332 334 332 328 323 323 323 323 320 317 317 318 318 319 319 319 319 320 320 319
337 338 336 337 336 337 334 337 337 336 334 336 334 333 333 334 335 335 334 332 332 326 324 324 326 326 326 323 321 321 321 321 320 321 322 324 324 322
340 339 340 338 332 335 332 334 336 337 337 337 338 336 336 335 334 334 330 331 329 326 327 327 326 327 327 327 326 324 323 324 325 324 325 324 324 324
338 339 337 337 331 332 331 329 331 333 334 335 338 337 336 336 336 334 333 331 327 326 326 326 326 327 328 329 329 327 326 324 324 325 325 325 324 324
337 335 337 336 333 333 332 332 333 331 329 330 335 336 336 336 335 331 330 328 327 330 328 324 327 328 327 329 328 327 325 324 324 325 325 325 325 325
335 334 334 335 334 335 336 335 335 334 330 332 333 333 334 332 331 332 330 329 328 329 329 326 328 329 330 328 330 327 326 322 322 324 324 325 326 325
334 335 333 334 335 334 334 336 336 335 331 331 330 330 333 333 331 332 333 333 329 327 329 327 325 328 328 326 327 328 328 328 324 323 323 326 326 325
335 334 334 334 334 333 332 332 333 333 332 332 331 330 329 329 329 329 329 330 331 330 331 332 327 326 328 328 326 324 329 330 329 329 326 325 325 325
334 334 335 332 332 333 330 331 332 332 332 328 326 326 326 326 326 327 326 326 325 330 328 329 332 330 328 326 325 323 330 333 332 331 330 329 326 325
334 334 333 332 332 332 331 330 331 332 330 326 326 325 325 325 326 326 328 329 327 325 324 326 328 329 328 325 325 325 330 331 330 330 331 331 330 328
333 336 334 333 332 332 332 331 331 332 329 327 325 324 324 325 325 326 325 328 328 326 325 327 325 326 325 323 325 325 327 330 332 331 332 332 331 330
333 334 335 334 334 333 332 332 329 327 326 325 325 324 324 324 325 326 327 327 327 327 327 326 331 331 329 327 327 327 329 331 329 330 331 332 331 330
334 334 334 334 333 333 331 329 328 327 327 325 325 324 324 325 325 326 327 327 328 327 327 326 327 331 336 333 329 327 331 331 328 330 329 330 330 329
332 333 333 332 331 327 326 324 324 323 324 325 325 324 324 325 325 326 326 328 329 327 325 328 328 327 329 333 330 330 329 330 329 328 332 331 330 331
331 331 329 330 328 326 326 325 326 328 324 326 324 325 324 323 325 325 325 324 325 326 327 328 327 326 328 328 330 329 330 329 329 332 331 333 333 332
326 326 325 326 325 326 326 328 328 327 329 330 329 327 327 326 326 325 325 325 325 325 327 327 326 329 328 328 330 330 330 329 329 328 330 333 333 334
326 326 326 325 325 326 328 329 330 330 330 327 329 329 330 331 331 329 328 327 326 327 327 327 325 325 328 328 329 328 329 329 329 332 329 330 330 328
Wind_Speed
25 26 27 26 25 27 27 26 23 11 12 26 19 18 18 14 13 13 13 15 14 14 13 12 13 13 14 14 15 15 14 13 11 10 9 8 7 7
26 25 27 27 23 22 23 28 31 28 11 16 17 11 16 15 15 14 14 16 15 14 13 13 12 14 15 14 15 14 13 13 12 10 9 8 7 7
23 22 22 22 22 26 27 31 30 30 15 8 14 16 18 22 22 19 13 16 16 12 11 12 13 16 17 17 16 15 15 14 12 11 10 9 7 6
21 20 21 20 22 21 18 18 19 23 16 11 13 16 19 28 29 24 20 14 12 13 12 11 12 14 15 16 16 16 15 14 12 12 10 8 7 6
20 20 22 22 25 22 23 25 27 23 23 13 8 13 14 28 26 24 19 18 17 14 15 14 14 15 16 16 17 17 16 15 14 12 10 9 7 6
20 22 22 21 17 18 13 10 19 22 20 17 15 16 22 25 29 24 19 21 18 18 16 17 16 17 17 18 18 17 17 16 14 13 12 10 10 9
8 6 4 4 9 8 11 12 16 17 17 16 14 14 16 23 25 25 23 19 16 17 20 19 18 18 19 19 19 18 18 17 16 14 14 13 13 13
7 5 6 7 8 10 4 9 18 21 20 16 15 15 17 20 21 22 18 17 14 17 21 19 20 18 19 21 21 20 20 19 18 16 15 16 15 16
5 5 7 9 11 13 9 8 13 14 16 17 18 20 21 23 23 21 21 19 17 17 19 17 20 20 22 25 21 19 19 19 19 17 14 12 13 12
4 2 6 6 10 11 11 10 10 11 10 13 15 15 20 21 25 28 21 15 16 17 25 18 22 21 20 14 23 22 17 17 17 17 16 15 14 13
8 7 3 8 14 13 14 13 10 8 10 8 9 12 17 22 23 21 19 18 15 17 20 19 15 20 16 15 21 18 17 17 19 18 18 18 18 16
8 11 13 12 17 20 14 13 11 13 14 10 10 10 16 20 21 18 20 18 17 16 25 18 17 19 7 16 17 20 15 16 18 19 19 19 19 18
14 17 18 18 15 19 18 12 15 14 12 12 11 12 13 13 17 18 15 14 16 16 18 24 18 18 17 9 24 19 20 18 22 22 21 21 20 20
18 17 17 19 17 18 18 9 9 11 15 16 18 18 17 17 17 17 17 14 12 8 4 13 13 19 17 21 13 12 21 25 23 19 21 24 23 22
18 19 18 17 19 17 17 13 14 15 18 18 15 15 17 19 20 22 20 17 22 11 6 14 9 15 10 12 12 15 18 16 18 16 20 19 24 27
22 14 16 18 21 17 17 18 16 16 17 16 16 16 16 17 18 18 22 20 16 18 20 15 16 14 12 16 18 15 17 14 19 21 22 20 27 26
21 16 18 20 22 21 20 20 19 19 19 18 18 17 17 18 19 20 20 21 20 19 19 20 22 22 22 25 21 20 19 19 22 25 25 19 22 27
22 18 20 21 21 21 23 25 22 22 21 21 20 18 18 19 19 20 21 20 18 19 20 21 26 22 23 25 28 24 22 21 16 16 21 24 24 22
20 20 19 19 20 22 25 23 22 23 25 21 20 19 20 21 19 19 19 19 19 18 18 20 20 25 11 13 24 33 26 20 20 20 26 26 22 18
19 19 18 22 22 20 20 21 19 17 16 17 19 20 20 21 21 20 20 19 19 17 22 22 19 23 20 13 17 22 33 34 30 26 19 25 26 25
23 23 22 24 22 20 19 17 17 12 19 18 19 19 21 22 21 20 21 23 22 21 19 19 25 28 23 23 22 24 23 35 32 25 24 21 23 25
23 23 23 21 21 19 20 20 22 24 27 24 24 31 30 23 25 24 25 24 23 26 24 25 29 27 26 24 22 21 21 24 35 39 35 28 20 18
25 25 26 25 24 21 18 17 20 19 22 24 26 26 25 32 33 28 27 26 27 26 22 26 28 28 25 27 27 28 28 25 27 23 42 42 39 36
Wind_Direction
234 237 230 237 234 240 236 232 233 244 247 242 233 226 221 181 170 173 175 181 175 173 167 177 178 186 188 185 185 188 189 193 189 189 182 183 178 164
231 229 230 239 244 243 243 238 229 236 243 227 212 201 208 183 175 178 175 173 171 175 175 187 192 197 199 197 199 198 198 191 181 181 174 178 177 173
230 230 235 239 241 245 247 238 227 218 217 204 211 211 203 181 167 169 168 176 174 191 191 194 195 205 205 206 206 202 194 189 182 181 179 176 169 171
235 232 232 241 242 239 222 211 197 203 204 178 193 201 195 195 175 171 166 175 191 203 203 200 194 198 198 199 199 195 194 191 190 189 187 183 180 178
236 241 247 245 240 240 237 224 212 199 197 194 146 180 168 166 162 155 172 178 189 206 210 201 198 199 197 194 197 193 195 194 192 198 197 197 199 198
256 255 254 253 243 230 215 226 185 171 170 176 161 155 153 165 172 174 188 187 207 195 197 200 196 203 203 201 200 199 198 200 205 210 215 217 223 222
244 233 210 229 216 205 200 181 165 158 159 157 154 160 164 165 176 183 184 201 198 198 186 193 200 204 211 210 205 203 206 210 215 222 230 233 236 236
212 191 175 204 176 197 181 174 175 163 173 171 174 176 175 180 183 180 182 176 196 201 189 197 190 199 206 211 213 212 215 220 227 233 244 246 242 240
195 192 181 194 192 196 186 151 167 176 178 180 179 192 186 185 185 188 195 198 194 186 209 202 194 202 213 212 207 202 218 224 232 234 234 232 233 237
228 208 193 190 189 181 183 177 178 179 180 190 198 205 198 189 191 191 189 194 205 194 190 221 202 210 215 230 197 202 210 220 223 219 226 232 228 239
204 218 222 225 203 193 188 186 184 174 181 211 198 191 189 184 181 182 181 184 199 191 184 208 220 221 206 180 184 201 216 224 223 224 229 233 232 242
233 247 238 227 212 201 198 193 194 187 177 161 147 150 161 171 183 195 181 201 206 204 184 209 187 205 230 207 206 201 207 218 221 222 227 232 231 237
235 239 229 224 217 198 198 202 200 189 186 171 170 166 176 185 199 214 216 244 229 233 191 188 208 195 212 226 241 191 197 213 213 219 225 229 229 227
216 220 226 211 201 201 202 209 189 180 188 195 191 187 189 201 205 210 229 244 261 47 171 202 204 221 213 234 222 232 214 204 195 202 215 222 223 225
215 216 222 205 198 203 199 201 186 199 209 195 214 222 214 209 205 200 211 237 257 252 219 228 241 241 250 258 242 231 193 175 192 205 213 217 223 220
218 215 204 205 198 200 203 207 207 210 215 230 232 221 219 216 204 205 196 204 222 238 235 220 233 239 241 250 246 258 199 212 217 213 224 221 217 226
200 204 191 187 191 205 204 203 208 215 224 232 234 234 229 222 218 210 221 210 209 212 218 218 221 230 236 240 256 246 245 231 220 207 214 213 215 221
201 199 195 196 202 201 212 211 200 206 218 223 227 239 240 230 228 221 213 214 227 227 219 212 198 211 224 235 234 247 251 245 235 232 221 212 224 236
207 202 206 207 209 212 212 212 217 212 209 221 226 223 228 245 236 233 219 215 221 241 234 219 212 197 210 229 222 227 239 248 246 246 232 229 245 247
216 223 222 222 213 214 217 223 230 235 228 225 225 234 232 238 228 230 235 231 202 223 240 252 227 222 222 225 233 220 223 224 229 240 238 220 225 231
216 231 222 227 226 225 228 215 221 229 225 213 217 224 224 232 243 240 232 234 236 233 234 242 248 253 249 238 230 231 228 229 228 229 234 238 221 226
217 215 232 235 235 230 224 209 216 223 228 217 212 217 229 226 247 233 238 241 232 229 233 231 235 236 230 243 248 243 238 243 233 236 233 233 229 230
235 228 218 214 227 232 229 225 230 235 224 228 234 229 216 212 224 228 231 233 239 246 238 226 230 235 236 233 233 236 249 236 237 233 233 234 238 246